, MT

(GMT )
West Yellowstone

Weather History for KWYS - November, 2013

Change the Weather History Date:

Monday, November 4, 2013

  Actual Average Record
Temperature  
Mean Temperature 12 °F -  
Max Temperature 23 °F 39 °F 57 °F (2010)
Min Temperature 1 °F 18 °F 1 °F (2013)
Degree Days  
Heating Degree Days 53    
Moisture  
Dew Point 14 °F    
Average Humidity 86    
Maximum Humidity 93    
Minimum Humidity 80    
Precipitation  
Precipitation 0.01 in - - ()
Sea Level Pressure  
Sea Level Pressure 29.93 in    
Wind  
Wind Speed 6 mph (SSW)    
Max Wind Speed 16 mph    
Max Gust Speed 21 mph    
Visibility 6 miles    
Events Rain , Snow    
Averages and records for this station are not official NWS values.
T = Trace of Precipitation, MM = Missing Value Source: NWS Daily Summary

Daily Weather History Graph

Daily Weather History Graph

Search for Another Location

Airport or City:

Trip Planner

Search our weather history database for the weather conditions in past years. The results will help you decide how hot, cold, wet, or windy it might be!

Date:

Astronomy

Nov. 04, 2013 Rise Set
Actual Time 7:06 AM MST 5:08 PM MST
Civil Twilight 6:36 AM MST 5:39 PM MST
Nautical Twilight 6:01 AM MST 6:14 PM MST
Astronomical Twilight 5:27 AM MST 6:48 PM MST
Moon 8:23 AM MST (11/4) 6:13 PM MST (11/4)
Length of Visible Light 11h 03m
Length of Day
10h 01m
New Moon, 2% of the Moon is Illuminated
Nov 4
New Moon
Nov 9
First Quarter
Nov 17
Full
Nov 25
Last Quarter
Dec 2
New

Hourly Weather History & Observations

Time (MST) Temp. Windchill Dew Point Humidity Pressure Visibility Wind Dir Wind Speed Gust Speed Precip Events Conditions
12:10 AM 15.8 °F - 12.2 °F 86% 29.91 in 10.0 mi Calm Calm - N/A Snow Light Snow
12:30 AM 17.6 °F 7.3 °F 15.8 °F 93% 29.91 in 10.0 mi South 8.1 mph - N/A Snow Light Snow
12:50 AM 19.4 °F 9.5 °F 17.6 °F 93% 29.90 in 5.0 mi SW 8.1 mph - N/A Snow Light Snow
1:10 AM 19.4 °F 14.3 °F 15.8 °F 86% 29.90 in 6.0 mi SW 3.5 mph - N/A Snow Light Snow
1:30 AM 19.4 °F 14.3 °F 15.8 °F 86% 29.90 in 9.0 mi SW 3.5 mph - N/A   Overcast
1:50 AM 19.4 °F 14.3 °F 15.8 °F 86% 29.90 in 10.0 mi West 3.5 mph - N/A   Overcast
2:10 AM 19.4 °F 10.4 °F 15.8 °F 86% 29.90 in 8.0 mi SW 6.9 mph - N/A Snow Light Snow
2:30 AM 19.4 °F 8.6 °F 15.8 °F 86% 29.90 in 9.0 mi SW 9.2 mph - N/A   Mostly Cloudy
2:50 AM 19.4 °F 10.4 °F 15.8 °F 86% 29.90 in 9.0 mi SSW 6.9 mph - N/A   Overcast
3:10 AM 19.4 °F 11.5 °F 15.8 °F 86% 29.90 in 4.0 mi SW 5.8 mph - N/A Snow Light Snow
3:30 AM 19.4 °F 14.3 °F 15.8 °F 86% 29.90 in 4.0 mi SW 3.5 mph - N/A Snow Light Snow
3:50 AM 19.4 °F - 15.8 °F 86% 29.90 in 5.0 mi Calm Calm - N/A Snow Light Snow
4:10 AM 19.4 °F - 15.8 °F 86% 29.89 in 5.0 mi Calm Calm - N/A Snow Light Snow
4:30 AM 19.4 °F 14.3 °F 15.8 °F 86% 29.89 in 5.0 mi NNW 3.5 mph - N/A Snow Light Snow
4:50 AM 19.4 °F - 15.8 °F 86% 29.89 in 5.0 mi Calm Calm - N/A Snow Light Snow
5:10 AM 19.4 °F 14.3 °F 15.8 °F 86% 29.89 in 8.0 mi SSE 3.5 mph - N/A Snow Light Snow
5:30 AM 19.4 °F 14.3 °F 15.8 °F 86% 29.89 in 3.0 mi ESE 3.5 mph - N/A Snow Light Snow
5:50 AM 19.4 °F - 15.8 °F 86% 29.89 in 2.0 mi Calm Calm - N/A Snow Light Snow
6:10 AM 19.4 °F - 15.8 °F 86% 29.89 in 1.0 mi Calm Calm - N/A Snow Light Snow
6:30 AM 19.4 °F - 15.8 °F 86% 29.89 in 1.8 mi Calm Calm - N/A Snow Light Snow
6:50 AM 19.4 °F - 15.8 °F 86% 29.89 in 1.2 mi Calm Calm - N/A Snow Light Snow
7:10 AM 19.4 °F 12.8 °F 15.8 °F 86% 29.90 in 1.0 mi South 4.6 mph - N/A Snow Light Snow
7:30 AM 19.4 °F 12.8 °F 15.8 °F 86% 29.90 in 1.0 mi SSW 4.6 mph - N/A Snow Light Snow
7:50 AM 19.4 °F 12.8 °F 15.8 °F 86% 29.91 in 0.8 mi SW 4.6 mph - 0.01 in Snow Light Snow
8:10 AM 19.4 °F 7.2 °F 15.8 °F 86% 29.91 in 3.0 mi SSW 11.5 mph 17.3 mph N/A Snow Light Snow
8:30 AM 19.4 °F 7.9 °F 15.8 °F 86% 29.91 in 0.8 mi SSW 10.4 mph 17.3 mph N/A Snow Light Snow
8:50 AM 19.4 °F 7.2 °F 15.8 °F 86% 29.91 in 2.5 mi SSW 11.5 mph - N/A   Scattered Clouds
9:10 AM 19.4 °F 7.2 °F 17.6 °F 93% 29.91 in 1.8 mi SSW 11.5 mph - N/A Snow Light Snow
9:30 AM 21.2 °F 10.1 °F 17.6 °F 86% 29.91 in 1.8 mi SSW 10.4 mph 18.4 mph N/A   Scattered Clouds
9:50 AM 21.2 °F 10.9 °F 17.6 °F 86% 29.91 in 3.0 mi SSW 9.2 mph 16.1 mph N/A   Clear
10:10 AM 23.0 °F 11.1 °F 17.6 °F 80% 29.91 in 2.5 mi SSW 12.7 mph 18.4 mph N/A   Clear
10:30 AM 23.0 °F 11.7 °F 19.4 °F 86% 29.91 in 2.0 mi SSW 11.5 mph 18.4 mph N/A Snow Light Snow
10:50 AM 21.2 °F 8.9 °F 17.6 °F 86% 29.91 in 0.2 mi SSW 12.7 mph 19.6 mph N/A Snow Heavy Snow
11:10 AM 23.0 °F 10.1 °F 19.4 °F 86% 29.91 in 2.0 mi SW 15.0 mph 20.7 mph N/A Snow Light Snow
11:30 AM 23.0 °F 11.1 °F 17.6 °F 80% 29.90 in 1.0 mi SSW 12.7 mph 17.3 mph N/A Snow Light Snow
11:50 AM 21.2 °F 9.5 °F 17.6 °F 86% 29.90 in 0.5 mi SSW 11.5 mph 18.4 mph N/A Rain Light Freezing Rain
12:10 PM 23.0 °F 11.7 °F 19.4 °F 86% 29.90 in 1.0 mi SW 11.5 mph 19.6 mph N/A Snow Light Snow
12:30 PM 23.0 °F 9.6 °F 19.4 °F 86% 29.89 in 3.0 mi SW 16.1 mph 20.7 mph N/A Snow Light Snow
12:50 PM 23.0 °F 12.4 °F 17.6 °F 80% 29.89 in 7.0 mi SSW 10.4 mph - N/A   Scattered Clouds
1:10 PM 23.0 °F 10.1 °F 19.4 °F 86% 29.89 in 10.0 mi SSW 15.0 mph 19.6 mph N/A   Mostly Cloudy
1:30 PM 23.0 °F 11.7 °F 19.4 °F 86% 29.89 in 10.0 mi SSW 11.5 mph 17.3 mph N/A   Scattered Clouds
1:50 PM 23.0 °F 11.1 °F 19.4 °F 86% 29.89 in 10.0 mi SSW 12.7 mph 18.4 mph N/A   Partly Cloudy
2:10 PM 23.0 °F 11.1 °F 19.4 °F 86% 29.89 in 10.0 mi SSW 12.7 mph 17.3 mph N/A   Mostly Cloudy
2:30 PM 23.0 °F 10.6 °F 19.4 °F 86% 29.89 in 10.0 mi SSW 13.8 mph - N/A   Mostly Cloudy
2:50 PM 23.0 °F 11.7 °F 19.4 °F 86% 29.89 in 10.0 mi SSW 11.5 mph 17.3 mph N/A   Mostly Cloudy
3:10 PM 23.0 °F 11.7 °F 19.4 °F 86% 29.90 in 10.0 mi SW 11.5 mph - N/A   Scattered Clouds
3:30 PM 23.0 °F 13.9 °F 19.4 °F 86% 29.90 in 10.0 mi SW 8.1 mph - N/A   Mostly Cloudy
3:50 PM 23.0 °F 13.1 °F 17.6 °F 80% 29.91 in 10.0 mi SW 9.2 mph - N/A   Mostly Cloudy
4:10 PM 23.0 °F 14.7 °F 17.6 °F 80% 29.92 in 9.0 mi SW 6.9 mph - N/A   Scattered Clouds
4:30 PM 23.0 °F 17.0 °F 17.6 °F 80% 29.92 in 5.0 mi West 4.6 mph - N/A Snow Light Snow
4:50 PM 21.2 °F 11.7 °F 17.6 °F 86% 29.93 in 0.8 mi WSW 8.1 mph - N/A Snow Light Snow
5:10 PM 19.4 °F 7.9 °F 17.6 °F 93% 29.93 in 9.0 mi SSW 10.4 mph - N/A Snow Light Snow
5:30 PM 21.2 °F 10.1 °F 17.6 °F 86% 29.94 in 10.0 mi SSW 10.4 mph - N/A   Mostly Cloudy
5:50 PM 19.4 °F 9.5 °F 15.8 °F 86% 29.95 in 10.0 mi SW 8.1 mph - N/A   Overcast
6:10 PM 17.6 °F 9.3 °F 15.8 °F 93% 29.95 in 10.0 mi SW 5.8 mph - N/A   Overcast
6:30 PM 17.6 °F 10.7 °F 14.0 °F 86% 29.96 in 10.0 mi SW 4.6 mph - N/A   Overcast
6:50 PM 17.6 °F - 14.0 °F 86% 29.96 in 10.0 mi Calm Calm - N/A   Overcast
7:10 PM 15.8 °F - 12.2 °F 86% 29.97 in 10.0 mi Calm Calm - N/A   Mostly Cloudy
7:30 PM 10.4 °F - 6.8 °F 85% 29.97 in 10.0 mi Calm Calm - N/A   Partly Cloudy
7:50 PM 8.6 °F 2.0 °F 6.8 °F 92% 29.98 in 10.0 mi ESE 3.5 mph - N/A   Scattered Clouds
8:10 PM 8.6 °F - 6.8 °F 92% 29.98 in 10.0 mi Calm Calm - N/A   Scattered Clouds
8:30 PM 8.6 °F - 5.0 °F 85% 29.99 in 10.0 mi Calm Calm - N/A   Clear
8:50 PM 5.0 °F - 1.4 °F 85% 29.99 in 10.0 mi Calm Calm - N/A   Partly Cloudy
9:10 PM 5.0 °F - 1.4 °F 85% 30.00 in 10.0 mi Calm Calm - N/A   Scattered Clouds
9:30 PM 3.2 °F - -0.4 °F 85% 30.00 in 10.0 mi Calm Calm - N/A   Scattered Clouds
9:50 PM 1.4 °F -6.2 °F -0.4 °F 92% 30.01 in 10.0 mi South 3.5 mph - N/A   Partly Cloudy
10:10 PM 1.4 °F - -0.4 °F 92% 30.01 in 10.0 mi Calm Calm - N/A   Partly Cloudy
10:30 PM 1.4 °F -8.3 °F -0.4 °F 92% 30.01 in 10.0 mi NE 4.6 mph - N/A   Mostly Cloudy
10:50 PM 3.2 °F -6.2 °F -0.4 °F 85% 30.02 in 10.0 mi NNE 4.6 mph - N/A   Overcast
11:10 PM 5.0 °F - 1.4 °F 85% 30.02 in 10.0 mi Calm Calm - N/A   Overcast
11:30 PM 6.8 °F - 3.2 °F 85% 30.03 in 10.0 mi Calm Calm - N/A   Overcast
11:50 PM 6.8 °F - 5.0 °F 92% 30.03 in 10.0 mi Calm Calm - N/A   Mostly Cloudy